Location: Latimer
(34.1330°N, 82.5927°W)
Time: 23:31:20
(UTC+00:00)

N. Korean satellite - Visible Passes

Search period start: 08 August 2022 00:00
Search period end: 18 August 2022 00:00
Orbit: 433 x 471 km, 97.3° (Epoch: 08 August)

Date Brightness Start Highest point End Pass type
(mag) Time Alt. Az. Time Alt. Az. Time Alt. Az.
08 Aug 8.5 10:11:37 10° NE 10:14:46 30° E 10:17:54 10° SSE visible
09 Aug 9.9 09:39:37 10° E 09:40:15 10° E 09:40:54 10° ESE visible
11 Aug 9.1 10:01:34 10° NE 10:04:22 22° E 10:07:09 10° SSE visible
14 Aug 9.5 09:51:26 10° NE 09:53:39 16° E 09:55:51 10° SE visible
16 Aug 8.4 10:14:10 10° NNE 10:17:23 33° E 10:20:34 10° SSE visible
17 Aug 9.8 09:41:33 10° ENE 09:42:37 11° E 09:43:40 10° ESE visible
